Simultaneous Nadir Overpasses (SNOs) Predictions

Prediction of SNOs between NOAA-19 and TERRA Satellite Orbit:

Table of predicted SNOs for the next 14.0 days since TLE Epoch: 6/2/2017
Index Date (NOAA-19) Time (NOAA-19) Lat,Lon (NOAA-19) SZA (NOAA-19 ) Date (TERRA) Time (TERRA) Lat,Lon (TERRA) SZA (TERRA ) Distance(km) Time Diff (sec)
1 06/04/2017 04:14:40 75.45, 127.51 53.27 06/04/2017 04:15:03 75.48, 127.47 53.29 2.82 23
2 06/04/2017 05:05:43 -75.40, -65.08 126.78 06/04/2017 05:04:32 -75.40, -65.10 126.80 0.78 71
3 06/06/2017 09:48:33 -75.47,-135.97 126.96 06/06/2017 09:48:48 -75.50,-135.92 126.94 2.66 15
4 06/06/2017 10:39:28 75.35, 31.71 52.94 06/06/2017 10:38:16 75.37, 31.37 52.92 9.67 72
5 06/08/2017 15:22:20 75.50, -39.44 52.85 06/08/2017 15:22:31 75.51, -39.32 52.86 3.19 11
6 06/08/2017 16:13:15 -75.11, 129.04 127.46 06/08/2017 16:12:05 -75.19, 127.44 127.50 46.46 70
7 06/10/2017 20:56:11 -75.48, 57.25 127.35 06/10/2017 20:56:17 -75.47, 57.14 127.36 2.98 6
8 06/10/2017 21:46:58 74.94,-133.81 52.24 06/10/2017 21:45:51 75.04,-136.39 52.16 75.17 67
9 06/13/2017 02:29:59 75.51, 153.73 52.54 06/13/2017 02:29:59 75.52, 153.85 52.55 3.26 0
10 06/15/2017 07:13:01 76.12, 80.96 52.93 06/15/2017 07:14:06 76.04, 84.31 53.04 90.18 65
11 06/15/2017 08:03:49 -75.49,-109.60 127.59 06/15/2017 08:03:45 -75.48,-109.69 127.61 3.05 4




NCC Satellite Simultaneous Nadir Overpasses (SNOs) Prediction Service
